アトラス彗星

C/2020 M5 ( ATLAS )

English version
Home page
Updated on March 7, 2023

---------------------------------------------------------------------

・ プロフィール

発見日 2020年6月30日
発見光度 19.4等
発見者 Asteroid Terrestrial-Impact Last Alert System (ATLAS) search program

・ 写真集

・ 軌道要素

Epoch 2023 Feb. 25.0 TT = JDT 2460000.5
T 2021 Aug. 19.86070 TT                                 Rudenko
q   3.0031591            (2000.0)            P               Q
z  -0.0001362      Peri.  126.31092     -0.59276563     -0.79357326
 +/-0.0000007      Node   352.09176     -0.28642990     +0.36714093
e   1.0004089      Incl.   93.22157     +0.75271962     -0.48523090
>From 1633 observations 2019 Aug. 10-2023 Feb. 27, mean residual 0".5.

・ 星図

・ 光度変化

        m1 = 5.0 + 5 logΔ + 15.0 log r(t - 70)

---------------------------------------------------------------------

軌道要素はM.P.E.C. 2023-D72に掲載されたものです。
星図はステラナビゲータ Ver.10 (アストロアーツ) で作成したものです。
光度グラフはComet for Windowsで作成したものです。

---------------------------------------------------------------------

Copyright(C) Seiichi Yoshida (comet@aerith.net). All rights reserved.